OE-11140 Weather Reports


Display with metric or nautical units.
time (UTC)temp
F
wind
direction
speed
MPH
gust
MPH
rain 1hr
in
rain 24hr
in
rain mn
in
humidity
%
barometer
mb
20260903064129 59 100 1.0 2.0 0.00 0.00 0.00 81 1023.2
20260903063516 59 148 1.0 2.0 0.00 0.00 0.00 80 1023.2
20260903062517 59 285 0.0 2.0 0.00 0.00 0.00 82 1023.2
20260903061130 59 264 2.0 4.0 0.00 0.00 0.00 82 1023.2
20260903060517 58 224 2.0 4.0 0.00 0.00 0.00 80 1023.2
20260903055516 58 75 2.0 4.0 0.00 0.00 0.00 83 1023.2
20260903054129 57 256 2.0 5.0 0.00 0.00 0.00 83 1023.1
20260903053517 57 193 1.0 5.0 0.00 0.00 0.00 86 1023.2
20260903052517 57 93 1.0 2.0 0.00 0.00 0.00 85 1023.1
20260903051130 57 360 0.0 2.0 0.00 0.00 0.00 87 1023.1
20260903050516 57 72 0.0 3.0 0.00 0.00 0.00 86 1022.9
20260903045517 57 30 0.0 3.0 0.00 0.00 0.00 86 1023.0
20260903044129 57 14 1.0 2.0 0.00 0.00 0.00 87 1023.0
20260903043516 57 56 1.0 2.0 0.00 0.00 0.00 87 1022.9
20260903042517 57 360 0.0 2.0 0.00 0.00 0.00 87 1022.6
20260903041129 57 103 1.0 2.0 0.00 0.00 0.00 87 1022.7
20260903040517 56 345 0.0 2.0 0.00 0.00 0.00 87 1023.0
20260903035517 56 124 1.0 2.0 0.00 0.00 0.00 87 1022.7
20260903034516 56 147 1.0 2.0 0.00 0.00 0.00 87 1022.9
20260903033517 57 301 0.0 2.0 0.00 0.00 0.00 85 1022.8
20260903032517 57 119 1.0 3.0 0.00 0.00 0.00 86 1023.0
20260903031130 57 276 0.0 2.0 0.00 0.00 0.00 87 1022.8
20260903030517 57 100 0.0 2.0 0.00 0.00 0.00 87 1022.9
20260903025517 57 67 1.0 2.0 0.00 0.00 0.00 87 1022.9
20260903024517 57 54 0.0 3.0 0.00 0.00 0.00 86 1022.8
20260903023517 57 79 2.0 3.0 0.00 0.00 0.00 86 1022.6
20260903022517 57 169 0.0 3.0 0.00 0.00 0.00 86 1022.5
20260903021129 57 303 1.0 3.0 0.00 0.00 0.00 88 1022.6
20260903020517 57 44 1.0 4.0 0.00 0.00 0.00 88 1022.6
20260903015517 57 89 1.0 2.0 0.00 0.00 0.00 90 1022.5
20260903014129 57 360 0.0 3.0 0.00 0.00 0.00 87 1022.5
20260903013516 56 323 1.0 3.0 0.00 0.00 0.00 89 1022.5
20260903012516 57 62 1.0 2.0 0.00 0.00 0.00 88 1022.4
20260903011130 58 166 1.0 3.0 0.00 0.00 0.00 86 1022.3
20260903010517 57 98 1.0 2.0 0.00 0.00 0.00 88 1022.3
20260903005517 58 70 0.0 2.0 0.00 0.00 0.00 87 1022.3
20260903004130 58 92 1.0 2.0 0.00 0.00 0.00 87 1022.3
20260903003517 58 10 0.0 2.0 0.00 0.00 0.00 84 1022.1
20260903002517 58 300 1.0 2.0 0.00 0.00 0.00 86 1022.2
20260903001529 58 93 0.0 1.0 0.00 0.00 0.00 86 1022.1
20260903000516 58 351 1.0 2.0 0.00 0.00 0.00 85 1022.2
20260902235516 58 152 0.0 2.0 0.00 0.00 0.00 84 1022.1
20260902234130 58 165 0.0 2.0 0.00 0.00 0.00 84 1022.2
20260902233516 58 128 0.0 2.0 0.00 0.00 0.00 84 1022.3
20260902232516 58 245 0.0 2.0 0.00 0.00 0.00 85 1022.3
20260902231517 58 360 0.0 2.0 0.00 0.00 0.00 84 1022.3
20260902230517 59 73 1.0 3.0 0.00 0.00 0.00 83 1022.3
20260902225517 58 55 0.0 2.0 0.00 0.00 0.00 85 1022.3
20260902224130 58 96 0.0 2.0 0.00 0.00 0.00 84 1022.3
20260902223517 58 88 1.0 2.0 0.00 0.00 0.00 84 1022.3
20260902222517 58 360 0.0 2.0 0.00 0.00 0.00 84 1022.2
20260902221130 58 43 2.0 3.0 0.00 0.00 0.00 85 1022.1
20260902220516 59 47 1.0 4.0 0.00 0.00 0.00 85 1022.0
20260902215516 59 307 1.0 2.0 0.00 0.00 0.00 82 1021.9
20260902214130 60 199 1.0 3.0 0.00 0.00 0.00 81 1021.7
20260902213516 59 209 1.0 3.0 0.00 0.00 0.00 81 1021.7
20260902211131 60 322 0.0 2.0 0.00 0.00 0.00 80 1021.4
20260902210517 60 113 1.0 2.0 0.00 0.00 0.00 82 1021.4
20260902205517 60 84 0.0 2.0 0.00 0.00 0.00 81 1021.4
20260902204131 60 360 1.0 2.0 0.00 0.00 0.00 82 1021.3
20260902203516 61 70 1.0 3.0 0.00 0.00 0.00 81 1021.2
20260902202517 62 360 0.0 2.0 0.00 0.00 0.00 76 1020.9
20260902201130 62 308 1.0 3.0 0.00 0.00 0.00 77 1021.0
20260902200517 62 69 2.0 4.0 0.00 0.00 0.00 79 1020.8
20260902195517 63 302 1.0 3.0 0.00 0.00 0.00 75 1020.8
20260902194130 63 241 2.0 4.0 0.00 0.00 0.00 72 1020.7
20260902193517 64 155 1.0 2.0 0.00 0.00 0.00 74 1020.7
20260902192516 64 224 1.0 3.0 0.00 0.00 0.00 71 1020.6
20260902191130 65 257 2.0 4.0 0.00 0.00 0.00 67 1020.2
20260902190516 64 209 1.0 3.0 0.00 0.00 0.00 71 1020.1
20260902185517 64 246 0.0 2.0 0.00 0.00 0.00 74 1020.0
20260902184130 66 25 1.0 3.0 0.00 0.00 0.00 71 1019.7
20260902183517 65 35 1.0 3.0 0.00 0.00 0.00 74 1019.6
20260902182517 67 28 0.0 2.0 0.00 0.00 0.00 67 1019.4
20260902181130 68 272 2.0 4.0 0.00 0.00 0.00 64 1019.0
20260902180517 69 30 2.0 4.0 0.00 0.00 0.00 62 1018.9
20260902175517 70 35 3.0 5.0 0.00 0.00 0.00 60 1018.7
20260902174130 70 12 3.0 7.0 0.00 0.00 0.00 58 1018.3
20260902173516 71 338 4.0 6.0 0.00 0.00 0.00 56 1018.2
20260902172517 71 337 4.0 9.0 0.00 0.00 0.00 55 1017.9
20260902171130 71 335 4.0 6.0 0.00 0.00 0.00 55 1017.9
20260902170517 72 332 4.0 9.0 0.00 0.00 0.00 53 1017.7
20260902165517 73 320 4.0 9.0 0.00 0.00 0.00 52 1017.7
20260902164130 73 336 4.0 13.0 0.00 0.00 0.00 52 1017.6
20260902163517 73 335 5.0 10.0 0.00 0.00 0.00 51 1017.4
20260902162517 74 326 4.0 9.0 0.00 0.00 0.00 51 1017.2
20260902161130 75 335 5.0 10.0 0.00 0.00 0.00 48 1017.1
20260902160516 75 336 5.0 9.0 0.00 0.00 0.00 48 1017.0
20260902155517 76 332 5.0 11.0 0.00 0.00 0.00 47 1017.0
20260902154130 76 333 4.0 9.0 0.00 0.00 0.00 50 1016.8
20260902153517 76 321 4.0 8.0 0.00 0.00 0.00 46 1016.9
20260902152516 76 334 4.0 9.0 0.00 0.00 0.00 46 1016.9
20260902151130 76 351 4.0 10.0 0.00 0.00 0.00 45 1016.9
20260902150517 77 343 5.0 9.0 0.00 0.00 0.00 46 1016.8
20260902145517 77 1 5.0 11.0 0.00 0.00 0.00 47 1016.9
20260902144130 77 352 5.0 12.0 0.00 0.00 0.00 48 1016.9
20260902143516 77 5 6.0 11.0 0.00 0.00 0.00 48 1017.1
20260902142517 77 5 6.0 12.0 0.00 0.00 0.00 49 1017.0
20260902141130 77 356 5.0 12.0 0.00 0.00 0.00 48 1017.1
20260902140517 76 1 5.0 12.0 0.00 0.00 0.00 48 1017.0
20260902135517 77 10 6.0 11.0 0.00 0.00 0.00 50 1016.8
20260902134129 76 12 6.0 11.0 0.00 0.00 0.00 47 1017.1
20260902133517 76 15 7.0 12.0 0.00 0.00 0.00 50 1017.1
20260902132517 75 20 6.0 13.0 0.00 0.00 0.00 48 1017.3
20260902131130 76 20 6.0 15.0 0.00 0.00 0.00 49 1017.2
20260902130517 75 358 6.0 14.0 0.00 0.00 0.00 50 1017.5
20260902125517 76 359 6.0 12.0 0.00 0.00 0.00 47 1017.5
20260902124129 76 350 5.0 11.0 0.00 0.00 0.00 47 1017.3
20260902123517 76 352 5.0 13.0 0.00 0.00 0.00 46 1017.4
20260902122517 76 359 4.0 10.0 0.00 0.00 0.00 44 1017.5
20260902121130 77 350 4.0 11.0 0.00 0.00 0.00 42 1017.4
20260902120516 77 5 4.0 9.0 0.00 0.00 0.00 45 1017.6
20260902115516 76 353 3.0 8.0 0.00 0.00 0.00 45 1017.7
20260902114130 77 197 2.0 6.0 0.00 0.00 0.00 42 1017.4
20260902113517 76 222 2.0 6.0 0.00 0.00 0.00 43 1017.7
20260902112517 76 298 3.0 7.0 0.00 0.00 0.00 43 1017.8
20260902111130 76 251 2.0 7.0 0.00 0.00 0.00 44 1017.8
20260902110517 76 245 3.0 6.0 0.00 0.00 0.00 44 1018.1
20260902105516 75 247 1.0 6.0 0.00 0.00 0.00 45 1018.3
20260902104130 75 337 2.0 4.0 0.00 0.00 0.00 43 1018.6
20260902103517 75 311 2.0 6.0 0.00 0.00 0.00 44 1018.7
20260902102516 74 329 1.0 5.0 0.00 0.00 0.00 48 1018.7
20260902101130 74 41 2.0 5.0 0.00 0.00 0.00 46 1019.0
20260902100517 74 106 2.0 5.0 0.00 0.00 0.00 54 1019.0
20260902095517 73 93 1.0 4.0 0.00 0.00 0.00 52 1019.3
20260902094130 71 95 1.0 4.0 0.00 0.00 0.00 52 1019.6
20260902093517 72 100 2.0 5.0 0.00 0.00 0.00 58 1019.6
20260902092517 71 100 2.0 5.0 0.00 0.00 0.00 56 1019.9
20260902091129 70 106 2.0 5.0 0.00 0.00 0.00 56 1020.0
20260902090517 69 188 2.0 5.0 0.00 0.00 0.00 61 1020.1
20260902084129 69 133 2.0 8.0 0.00 0.00 0.00 63 1020.2
20260902083517 68 132 2.0 5.0 0.00 0.00 0.00 61 1020.4
20260902082517 67 124 2.0 7.0 0.00 0.00 0.00 66 1020.6
20260902081129 66 113 2.0 4.0 0.00 0.00 0.00 67 1020.8
20260902080517 65 169 3.0 9.0 0.00 0.00 0.00 70 1020.9
20260902075517 65 134 2.0 5.0 0.00 0.00 0.00 68 1021.0
20260902074130 64 136 2.0 6.0 0.00 0.00 0.00 71 1021.0
20260902073516 62 145 2.0 6.0 0.00 0.00 0.00 74 1021.5
20260902072517 61 214 1.0 6.0 0.00 0.00 0.00 78 1021.7
20260902071330 58 104 2.0 6.0 0.00 0.00 0.00 82 1022.1
20260902070516 56 139 1.0 4.0 0.00 0.00 0.00 86 1022.5
20260902065516 53 91 1.0 3.0 0.00 0.00 0.00 91 1022.8